Content
SEND FEEDBACK

Daily
Averages
Monthly
Summary
Canada

QUEBEC CITY, QUEBEC


Home > North America > Canada > Quebec
Elevation: 239 feet     Latitude: 46 48N     Longitude: 071 23W

WEATHER
 
SELECT A DAY
Number of Records: 192,807;   Date Range: 6/30/96 - 9/17/14
 
SHARE

PRINT THIS DATA

[ ← Previous Day ]
WEATHER ALMANAC - DECEMBER 15, 2013
[ Next Day → ]
[ °C ]   °F
Weather ElementAverageHighLow
Temperature7.9 °F12.2 °F (9:15 pm)5 °F (12:34 am)
Dewpoint3 °F8 °F (4:00 pm)-4 °F (12:34 am)
Humidity79.2 %85 % (8:00 am)66 % (12:34 am)
Barometer29.89 in30.36 in (12:34 am)29.65 in (6:00 pm)
Wind Speed16.5 mph27.6 mph (10:23 am)
Wind Gust39.1 mph (10:23 am)
Weather ElementAverage
Visibility1.4 mi
Wind DirectionENE (81.8 °)

Weather ElementTotal
Precipitation---
Heating Degree Days56.4 (Base 65)
Averaged from 39 records on December 15, 2013
WEATHER CONDITIONS BREAKOUT
WIND DIRECTION BREAKOUT
WEATHER BY HOUR - DECEMBER 15, 2013
[ °C ]   °F
Local TimeTemperatureDewpointHumidityBarometerVisibilityWind DirectionWind SpeedGust SpeedPrecipitationEventsConditions
12:34 AM5.0 °F-4.0 °F66 %30.36 in6.0 miENE (70°)20.7 mph32.2 mphSnowLight Snow Showers
1:00 AM5.0 °F-1.0 °F67 %30.32 inENE (70°)11.5 mph
1:00 AM5.0 °F-2.2 °F72 %30.33 in6.0 miENE (60°)20.7 mph33.4 mphSnowLight Snow Showers
2:00 AM5.0 °F-2.2 °F72 %30.29 in4.0 miENE (70°)19.6 mphSnowLight Snow
3:00 AM5.0 °F-0.4 °F78 %30.23 in1.0 miENE (70°)23.0 mph32.2 mphSnowLight Snow
4:00 AM6.0 °F0.0 °F66 %30.18 inENE (70°)17.3 mph
4:00 AM5.0 °F-0.4 °F78 %30.18 in3.0 miENE (60°)18.4 mph32.2 mphSnowLight Snow
4:36 AM5.0 °F-0.4 °F78 %30.15 in1.0 miENE (70°)21.9 mph31.1 mphSnowLight Snow
5:00 AM5.0 °F-0.4 °F78 %30.13 in1.0 miENE (70°)16.1 mph32.2 mphSnowLight Snow
5:53 AM5.0 °F-0.4 °F78 %30.10 in0.5 miENE (60°)19.6 mph29.9 mphSnowSnow
6:00 AM5.0 °F-0.4 °F78 %30.09 in0.5 miENE (60°)25.3 mph33.4 mphSnowSnow
7:00 AM6.0 °F2.0 °F77 %30.03 inENE (70°)19.6 mph
7:00 AM5.0 °F-0.4 °F78 %30.04 in0.6 miENE (70°)23.0 mph35.7 mphSnowSnow
7:22 AM5.0 °F-0.4 °F78 %30.01 in0.5 miENE (70°)23.0 mph36.8 mphSnowSnow
8:00 AM5.0 °F1.4 °F85 %29.98 in0.6 miENE (70°)23.0 mph35.7 mphSnowLight Snow
9:00 AM6.8 °F1.4 °F79 %29.93 in0.5 miENE (70°)24.2 mph32.2 mphSnowLight Snow
10:00 AM8.0 °F5.0 °F82 %29.88 inENE (70°)16.1 mph
10:00 AM6.8 °F3.2 °F85 %29.89 in0.5 miNE (50°)26.5 mphSnowLight Snow
10:23 AM6.8 °F3.2 °F85 %29.86 in0.4 miENE (60°)27.6 mph39.1 mphSnowLight Snow
11:00 AM8.6 °F3.2 °F79 %29.82 in0.5 miENE (60°)23.0 mph36.8 mphSnowLight Snow
12:00 PM8.6 °F3.2 °F79 %29.77 in0.5 miENE (70°)19.6 mph31.1 mphSnowLight Snow
12:38 PM8.6 °F3.2 °F79 %29.74 in0.8 miNE (50°)21.9 mph32.2 mphSnowLight Snow
1:00 PM9.0 °F6.0 °F79 %29.71 inENE (60°)17.3 mph
1:00 PM8.6 °F3.2 °F79 %29.71 in0.8 miENE (60°)21.9 mph34.5 mphSnowLight Snow
2:00 PM8.6 °F3.2 °F79 %29.68 in0.8 miENE (60°)19.6 mph36.8 mphSnowLight Snow
3:00 PM10.4 °F5.0 °F79 %29.67 in1.0 miENE (60°)20.7 mph31.1 mphSnowLight Snow
4:00 PM11.0 °F8.0 °F81 %29.66 inENE (70°)12.7 mph
4:00 PM10.4 °F5.0 °F79 %29.66 in1.0 miENE (70°)16.1 mph28.8 mphSnowLight Snow
5:00 PM10.4 °F5.0 °F79 %29.67 in1.5 miENE (60°)13.8 mph19.6 mphSnowLight Snow
6:00 PM10.4 °F6.8 °F85 %29.65 in1.0 miEast (90°)8.1 mphSnowLight Snow
6:33 PM10.4 °F6.8 °F85 %29.65 in1.2 miEast (90°)5.8 mphSnowLight Snow
7:00 PM11.0 °F8.0 °F84 %29.65 inEast (100°)5.8 mph
7:00 PM10.4 °F6.8 °F85 %29.65 in1.5 miEast (90°)5.8 mphSnowLight Snow
8:00 PM10.4 °F6.8 °F85 %29.66 in2.0 miEast (90°)5.8 mphSnowLight Snow
9:00 PM10.4 °F6.8 °F85 %29.65 in1.0 miEast (90°)5.8 mphSnowLight Snow
9:15 PM12.2 °F6.8 °F79 %29.65 in0.8 miEast (100°)4.6 mphSnowLight Snow
10:00 PM11.0 °F8.0 °F83 %29.66 inSW (220°)2.3 mph
10:00 PM10.4 °F6.8 °F85 %29.66 in0.8 miSSW (210°)6.9 mphSnowLight Snow
11:00 PM10.4 °F5.0 °F79 %29.66 in1.0 miSW (230°)9.2 mphSnowLight Snow
Hourly data recorded from CYQB, located miles away from Quebec City, Quebec







STORIES FROM OUR PARTNERS